Weather in Novostroyka

Russia / Primorsky Krai     46°11′02″N   133°56′02″E
temp.,
°C
wind,
m/s
gust,
m/s
humid.,
%
clouds,
%
prec.,
mm/h
press.,
hPa
HPBL,
m
19 september, sun
sun1901:00+7n11640 0.0 101910
04:00+6nnw11650 0.0 102010
07:00+5e0069100 0.0 102010
10:00+13ssw01505 0.0 1020414
13:00+15nne4443100 0.0 10191244
16:00+8ne3788100 0.9 1019234
19:00+9ene1182100 0.1 102016
22:00+6nnw11855 0.1 102110
20 september, mon
mon2001:00+5nnw11880 0.0 102210
04:00+4ne11895 0.0 102210
07:00+3s118996 0.0 102310
10:00+10sse1170100 0.0 1022284
13:00+16sse1149100 0.0 1021779
16:00+17ese1240100 0.0 1018848
19:00+13e1155100 0.0 101810
22:00+11e2258100 0.0 101716
21 september, tue
tue2101:00+12ese1154100 0.0 101611
04:00+10sse1183100 0.5 101612
07:00+10e2498100 3.8 1016129
10:00+11e2397100 4.7 1014106
13:00+12ese2794100 0.6 1012236
16:00+12e2795100 1.4 1010201
19:00+12e41194100 1.4 1009341
22:00+12ene3797100 6.2 1008269
22 september, wed
wed2201:00+12ene4898100 14.2 1006324
04:00+12ene41098100 23.1 1005331
07:00+12ne3798100 0.1 1006263
10:00+13ne3596100 0.2 1006261
13:00+14ne359399 0.1 1007353
16:00+14ene369399 0.1 1007308
19:00+13ne3694100 0.0 1009232
22:00+13ne3892100 0.0 1011283
23 september, thu
thu2301:00+12ne3693100 0.4 1011218
04:00+12ne4798100 7.5 1012254
07:00+12ene4996100 6.9 1014354
10:00+11ne4797100 10.1 1016232
13:00+12ne3795100 1.6 1017251
16:00+12ne3795100 1.8 1018279
19:00+11nne2693100 0.0 1020187
22:00+11nne2392100 0.0 102188